Shishmaref, AK

7:14 AM AKDT on May 28, 2017 (GMT -0800)
New Shishmaref

Weather History for PASH - July, 2013

Change the Weather History Date:

Tuesday, July 16, 2013

  Actual Average Record
Temperature  
Mean Temperature 50 °F -  
Max Temperature 53 °F 52 °F 62 °F (2004)
Min Temperature 48 °F 44 °F 39 °F (2003)
Degree Days  
Heating Degree Days 14    
Moisture  
Dew Point 45 °F    
Average Humidity 84    
Maximum Humidity 94    
Minimum Humidity 76    
Precipitation  
Precipitation 0.05 in - - ()
Sea Level Pressure  
Sea Level Pressure 30.01 in    
Wind  
Wind Speed 10 mph (SSW)    
Max Wind Speed 18 mph    
Max Gust Speed 22 mph    
Visibility 10 miles    
Events      
Averages and records for this station are not official NWS values.
T = Trace of Precipitation, MM = Missing Value Source: NWS Daily Summary

Daily Weather History Graph

Daily Weather History Graph

Search for Another Location

Airport or City:

Trip Planner

Search our weather history database for the weather conditions in past years. The results will help you decide how hot, cold, wet, or windy it might be!

Date:

Astronomy

Jul. 16, 2013 Rise Set
Actual Time 4:40 AM AKDT 1:36 AM AKDT
Civil Twilight Sun does not set Sun does not set
Nautical Twilight Sun does not set Sun does not set
Astronomical Twilight Sun does not set Sun does not set
Moon 6:05 PM AKDT (7/16) 1:10 AM AKDT (7/16)
Length of Visible Light 24h 00m
Length of Day
20h 56m
First Quarter, 58% of the Moon is Illuminated
Jul 16
First Quarter
Jul 22
Full
Jul 29
Last Quarter
Aug 6
New
Aug 14
First Quarter

Hourly Weather History & Observations

Time (AKDT) Temp. Dew Point Humidity Pressure Visibility Wind Dir Wind Speed Gust Speed Precip Events Conditions
12:16 AM 50.0 °F 46.4 °F 87% 30.00 in 10.0 mi NE 5.8 mph - N/A   Overcast
12:36 AM 50.0 °F 46.4 °F 87% 30.01 in 10.0 mi ENE 6.9 mph - N/A   Overcast
12:56 AM 50.0 °F 46.4 °F 87% 30.01 in 10.0 mi NE 5.8 mph - N/A   Overcast
1:16 AM 50.0 °F 46.4 °F 87% 30.00 in 10.0 mi ENE 4.6 mph - N/A   Overcast
1:36 AM 51.8 °F 48.2 °F 88% 30.00 in 9.0 mi Calm Calm - N/A   Overcast
1:56 AM 50.0 °F 46.4 °F 87% 30.00 in 6.0 mi Calm Calm - N/A   Overcast
2:16 AM 48.2 °F 46.4 °F 93% 30.00 in 10.0 mi Calm Calm - N/A   Overcast
2:36 AM 48.2 °F 46.4 °F 93% 30.01 in 10.0 mi Calm Calm - N/A   Overcast
2:56 AM 50.0 °F 48.2 °F 94% 30.01 in 10.0 mi SSW 4.6 mph - N/A   Overcast
3:16 AM 51.8 °F 48.2 °F 88% 30.01 in 10.0 mi SW 6.9 mph - N/A   Overcast
3:36 AM 51.8 °F 46.4 °F 82% 30.01 in 10.0 mi SW 11.5 mph - N/A   Overcast
3:56 AM 51.8 °F 46.4 °F 82% 30.00 in 10.0 mi SW 11.5 mph - N/A   Overcast
4:16 AM 50.0 °F 46.4 °F 87% 30.01 in 10.0 mi SW 11.5 mph - N/A   Overcast
4:36 AM 50.0 °F 44.6 °F 82% 30.01 in 10.0 mi SW 10.4 mph - N/A   Overcast
4:56 AM 50.0 °F 44.6 °F 82% 30.00 in 10.0 mi SW 10.4 mph - N/A   Overcast
5:16 AM 48.2 °F 44.6 °F 87% 30.00 in 10.0 mi SW 10.4 mph - N/A   Overcast
5:36 AM 48.2 °F 44.6 °F 87% 30.00 in 10.0 mi SW 12.7 mph - N/A   Overcast
5:56 AM 48.2 °F 44.6 °F 87% 30.01 in 10.0 mi SW 10.4 mph - N/A   Overcast
6:16 AM 48.2 °F 44.6 °F 87% 30.01 in 10.0 mi SW 9.2 mph - N/A   Overcast
6:36 AM 48.2 °F 44.6 °F 87% 30.01 in 10.0 mi SW 11.5 mph - N/A   Overcast
6:56 AM 48.2 °F 44.6 °F 87% 30.01 in 10.0 mi SSW 9.2 mph - N/A   Overcast
7:16 AM 48.2 °F 42.8 °F 82% 30.01 in 10.0 mi SSW 16.1 mph - N/A   Overcast
7:36 AM 48.2 °F 42.8 °F 82% 30.02 in 10.0 mi SSW 10.4 mph - N/A   Overcast
7:56 AM 48.2 °F 42.8 °F 82% 30.01 in 10.0 mi SSW 16.1 mph 21.9 mph N/A   Mostly Cloudy
8:16 AM 48.2 °F 42.8 °F 82% 30.01 in 10.0 mi SSW 15.0 mph - N/A   Overcast
8:36 AM 48.2 °F 42.8 °F 82% 30.01 in 10.0 mi SSW 16.1 mph - N/A   Overcast
8:56 AM 48.2 °F 42.8 °F 82% 30.01 in 10.0 mi SSW 13.8 mph - N/A   Overcast
9:16 AM 48.2 °F 42.8 °F 82% 30.01 in 10.0 mi South 15.0 mph - N/A   Overcast
9:36 AM 48.2 °F 42.8 °F 82% 30.01 in 10.0 mi South 9.2 mph - N/A   Overcast
9:56 AM 48.2 °F 42.8 °F 82% 30.01 in 10.0 mi South 13.8 mph - N/A   Overcast
10:16 AM 48.2 °F 44.6 °F 87% 30.01 in 10.0 mi SSW 12.7 mph - N/A   Overcast
10:36 AM 48.2 °F 44.6 °F 87% 30.01 in 9.0 mi SSW 13.8 mph - N/A   Overcast
10:56 AM 48.2 °F 44.6 °F 87% 30.02 in 8.0 mi South 11.5 mph - 0.01 in   Overcast
11:16 AM 48.2 °F 44.6 °F 87% 30.02 in 8.0 mi SSW 11.5 mph - 0.03 in   Mostly Cloudy
11:36 AM 48.2 °F 44.6 °F 87% 30.02 in 10.0 mi SSW 13.8 mph - 0.04 in   Overcast
11:56 AM 48.2 °F 44.6 °F 87% 30.02 in 10.0 mi South 12.7 mph - 0.04 in   Overcast
12:16 PM 48.2 °F 46.4 °F 93% 30.02 in 10.0 mi SSW 10.4 mph - N/A   Overcast
1:36 PM 50.0 °F 46.4 °F 87% 30.03 in 10.0 mi SSW 15.0 mph - N/A   Mostly Cloudy
1:56 PM 50.0 °F 46.4 °F 87% 30.03 in 10.0 mi SSW 13.8 mph 19.6 mph N/A   Overcast
2:16 PM 50.0 °F 46.4 °F 87% 30.02 in 10.0 mi SSW 13.8 mph - N/A   Overcast
2:36 PM 51.8 °F 46.4 °F 82% 30.03 in 10.0 mi South 11.5 mph - N/A   Overcast
2:56 PM 51.8 °F 46.4 °F 82% 30.02 in 10.0 mi South 12.7 mph - N/A   Overcast
3:16 PM 53.6 °F 46.4 °F 77% 30.02 in 10.0 mi South 15.0 mph - N/A   Overcast
3:36 PM 53.6 °F 48.2 °F 82% 30.02 in 10.0 mi South 12.7 mph - N/A   Overcast
3:56 PM 53.6 °F 46.4 °F 77% 30.02 in 10.0 mi SSW 13.8 mph - N/A   Overcast
4:16 PM 51.8 °F 46.4 °F 82% 30.02 in 10.0 mi South 16.1 mph - N/A   Overcast
4:36 PM 51.8 °F 46.4 °F 82% 30.02 in 10.0 mi South 13.8 mph - N/A   Overcast
4:56 PM 51.8 °F 46.4 °F 82% 30.02 in 10.0 mi South 15.0 mph - N/A   Overcast
5:16 PM 51.8 °F 46.4 °F 82% 30.02 in 10.0 mi South 17.3 mph - N/A   Overcast
5:36 PM 51.8 °F 46.4 °F 82% 30.02 in 10.0 mi South 16.1 mph - N/A   Overcast
5:56 PM 51.8 °F 46.4 °F 82% 30.02 in 10.0 mi South 18.4 mph - N/A   Overcast
6:16 PM 51.8 °F 46.4 °F 82% 30.02 in 10.0 mi South 17.3 mph - N/A   Overcast
6:36 PM 51.8 °F 46.4 °F 82% 30.02 in 10.0 mi South 18.4 mph - N/A   Overcast
6:56 PM 51.8 °F 46.4 °F 82% 30.02 in 10.0 mi South 16.1 mph - N/A   Overcast
7:16 PM 51.8 °F 46.4 °F 82% 30.02 in 10.0 mi South 17.3 mph - N/A   Overcast
7:36 PM 51.8 °F 46.4 °F 82% 30.02 in 10.0 mi South 15.0 mph - N/A   Overcast
7:56 PM 51.8 °F 46.4 °F 82% 30.01 in 10.0 mi South 16.1 mph - N/A   Overcast
8:16 PM 51.8 °F 46.4 °F 82% 30.02 in 10.0 mi South 18.4 mph - N/A   Overcast
8:36 PM 51.8 °F 46.4 °F 82% 30.02 in 10.0 mi SSW 18.4 mph 21.9 mph N/A   Overcast
8:56 PM 51.8 °F 46.4 °F 82% 30.02 in 10.0 mi SSW 16.1 mph - N/A   Overcast
9:16 PM 51.8 °F 46.4 °F 82% 30.01 in 10.0 mi SSW 13.8 mph 19.6 mph N/A   Overcast
9:36 PM 51.8 °F 44.6 °F 76% 30.01 in 10.0 mi SSW 13.8 mph - N/A   Overcast
9:56 PM 51.8 °F 44.6 °F 76% 30.02 in 10.0 mi South 17.3 mph - N/A   Overcast
10:16 PM 51.8 °F 44.6 °F 76% 30.02 in 10.0 mi South 17.3 mph - N/A   Overcast
10:36 PM 50.0 °F 44.6 °F 82% 30.02 in 10.0 mi South 17.3 mph - N/A   Overcast
10:56 PM 50.0 °F 44.6 °F 82% 30.02 in 10.0 mi South 16.1 mph - N/A   Overcast
11:16 PM 48.2 °F 44.6 °F 87% 30.02 in 10.0 mi South 13.8 mph - N/A   Overcast
11:36 PM 48.2 °F 44.6 °F 87% 30.02 in 10.0 mi SSW 15.0 mph - N/A   Overcast
11:56 PM 48.2 °F 44.6 °F 87% 30.02 in 10.0 mi SSW 17.3 mph - N/A   Overcast